Regional Weather Roundup
Issued by NWS

Home | Current Version | Previous Version | Graphics & Text | Print | Product List | Glossary On
Versions: 1 2 3 4 5 6 7 8 9 10 11 12 13 14 15 16 17 18 19 20 21 22 23 24 25 26 27 28 29 30 31 32 33 34 35 36 37 38 39 40 41 42 43 44 45 46 47 48 49 50
000
ASUS43 KOAX 261302
RWRNE

WEATHER ROUNDUP FOR NEBRASKA
NATIONAL WEATHER SERVICE OMAHA NE
800 AM CDT TUE SEP 26 2017

NOTES: SATELLITE DATA IS BEING USED TO AUGMENT CLOUD COVER ABOVE
       12000 FEET.
       "FAIR" INDICATES FEW OR NO CLOUDS BELOW 12,000 FEET WITH NO
       SIGNIFICANT WEATHER AND/OR OBSTRUCTIONS TO VISIBILITY.


NEZ001>004-019>022-054>056-261400-
NEBRASKA PANHANDLE

CITY           SKY/WX    TMP DP  RH WIND       PRES   REMARKS
SCOTTSBLUFF    PTCLDY    35  33  92 CALM      30.16R
ALLIANCE       CLEAR     33  33 100 S5        30.14S WCI  29
CHADRON        CLEAR     37  35  92 SW3       30.14R
GORDON         FAIR      37  36  94 W5        30.13R WCI  33
KIMBALL        CLEAR     37  37 100 W9        30.17R WCI  31
SIDNEY         CLEAR     31  30  96 W7        30.18R WCI  24
$$

NEZ057>060-069>072-079>082-261400-
SOUTHWEST NEBRASKA

CITY           SKY/WX    TMP DP  RH WIND       PRES   REMARKS
NORTH PLATTE   CLOUDY    47  44  90 NW9       30.17R
IMPERIAL       PTCLDY    44  41  89 W3        30.19R
LEXINGTON      CLOUDY    49  45  86 NW8       30.17R
MCCOOK         MOCLDY    44  44 100 W3        30.18R
OGALLALA       CLEAR     40  39  94 CALM      30.18R
$$

NEZ005>010-023>029-035>040-094-261400-
NORTH CENTRAL NEBRASKA

CITY           SKY/WX    TMP DP  RH WIND       PRES   REMARKS
VALENTINE      CLEAR     37  36  96 W3        30.14R
AINSWORTH      CLEAR     40  40 100 CALM      30.14R
BROKEN BOW     CLOUDY    48  44  86 NW12      30.15R
O`NEILL        MOCLDY    46  46 100 NW6       30.14R
ORD            MOCLDY    47  43  86 NW6       30.13R
THEDFORD       CLEAR     41  40  95 W3        30.15R
$$

NEZ041-046>049-061>064-073>077-083>087-261400-
SOUTH CENTRAL NEBRASKA

CITY           SKY/WX    TMP DP  RH WIND       PRES   REMARKS
GRAND ISLAND   CLOUDY    49  48  97 N13       30.14R
AURORA         CLOUDY    49  48  95 N13G20    30.13R
HASTINGS       CLOUDY    49  46  90 N15       30.14R
HEBRON         CLOUDY    52  50  93 N8        30.12R
HOLDREGE       CLOUDY    47  45  94 N6        30.16R
KEARNEY        CLOUDY    49  45  86 N10G20    30.16R
YORK           CLOUDY    50  50 100 NW8       30.12R
$$

NEZ011>018-030>034-042>045-261400-
NORTHEAST NEBRASKA

CITY           SKY/WX    TMP DP  RH WIND       PRES   REMARKS
NORFOLK        CLOUDY    49  47  93 NW15      30.09R
ALBION         CLOUDY    50  48  93 N9        30.13R
BLAIR          CLOUDY    53  52  97 NW9       30.07R FOG
COLUMBUS       CLOUDY    51  48  89 NW9       30.12R
FREMONT        CLOUDY    53  52  97 NW9       30.09R FOG
TEKAMAH        CLOUDY    53  51  93 NW10      30.07R
WAYNE          CLOUDY    51  48  92 NW8       30.09R FOG
$$

NEZ050>053-065>068-078-088>093-261400-
SOUTHEAST NEBRASKA

CITY           SKY/WX    TMP DP  RH WIND       PRES   REMARKS
LINCOLN        CLOUDY    54  51  90 N14       30.10R
OMAHA EPPLEY   DRIZZLE   55  51  86 NW14      30.06R FOG
BEATRICE       CLOUDY    54  53  97 NW7       30.10R FOG
FALLS CITY     CLOUDY    57  56  96 NW10      30.04R
NEBRASKA CITY  CLOUDY    55  55 100 N8        30.07R FOG
PLATTSMOUTH    CLOUDY    55  55 100 NW8       30.06R FOG
$$

NEZ044-045-051>053-067-261400-
OMAHA AREA

CITY           SKY/WX    TMP DP  RH WIND       PRES   REMARKS
OMAHA EPPLEY   DRIZZLE   55  51  86 NW14      30.06R FOG
BLAIR          CLOUDY    53  52  97 NW9       30.07R FOG
FREMONT        CLOUDY    53  52  97 NW9       30.09R FOG
MILLARD        CLOUDY    55  54  94 NW10      30.08R
OFFUTT AFB     CLOUDY    55  53  93 NW9       30.06R
PLATTSMOUTH    CLOUDY    55  55 100 NW8       30.06R FOG
WAHOO          CLOUDY    53  52  95 NW8       30.09R
$$




USA.gov is the U.S. government's official web portal to all federal, state and local government web resources and services.